{"data":{"norad_id":66715,"intl_designator":"2025-276BB","name":"FLOCK 4H-12","alt_names":[],"object_type":"PAYLOAD","status":"ACTIVE","operator":null,"country":"US","launch_date":"2025-11-28","launch_site_code":"AFWTR","launch_vehicle":null,"mission":null,"orbit_class":"UNKNOWN","rcs_meters":null,"size_class":null,"mass_kg":null,"dimensions":null,"purposes":["earth_obs"],"wikipedia_slug":null,"has_3d_model":false,"image_url":null,"decayed_at":null,"tle_current":{"epoch":"2026-09-19T23:45:51.003360Z","epoch_age_seconds":62369,"freshness":"FRESH","line1":"1 66715U 25276BB  26262.99017365  .00003212  00000+0  14564-3 0  9995","line2":"2 66715  97.4113 335.2121 0002333  36.7403 323.3992 15.21543555 45155","mean_motion":15.21543555,"eccentricity":0.0002333,"inclination_deg":97.4113,"raan_deg":335.2121,"arg_perigee_deg":36.7403,"mean_anomaly_deg":323.3992,"bstar":0.00014564,"rev_number":4515,"period_min":94.640734750442,"perigee_km":499.57917070349,"apogee_km":502.78906193636,"semimajor_km":6879.3211163199,"source":"CELESTRAK","updated_at":"2026-09-20T09:00:34.749758Z"}}}